Regional Weather Roundup
Issued by NWS Pendleton, OR

Home | Current Version | Previous Version | Text Only | Print | Product List | Glossary On
Versions: 1 2 3 4 5 6 7 8 9 10 11 12 13 14 15 16 17 18 19 20 21 22 23 24 25 26 27 28 29 30 31 32 33 34 35 36 37 38 39 40 41 42 43 44 45 46 47 48 49 50
000
ASUS46 KPDT 200825
RWRPDT
PENDLETON REGIONAL WEATHER ROUNDUP
NATIONAL WEATHER SERVICE PENDLETON OREGON
100 AM PDT SUN AUG 20 2017

NOTE: FAIR INDICATES FEW OR NO CLOUDS BELOW 12,000 FEET WITH NO
SIGNIFICANT WEATHER AND/OR OBSTRUCTIONS TO VISIBILITY.

# INDICATES UNOFFICIAL STATION AND DATA

WAZ520-200910-
EAST SLOPES OF WASHINGTON CASCADES

CITY            SKY/WX      TMP DP  RH  WIND    PRES   REMARKS
#BULLFROG       N/A         60  44  55  W9      N/A
#CLE ELUM HS    N/A         59  43  55  NW9     30.07R
#CLE ELUM LAKE  N/A         56  42  59  CALM    30.22S
#EASTON DOT     N/A         56  42  59  N1      N/A
#ELK HTS DOT    N/A         61  61  100 W3      N/A
#GLENWOOD       N/A         47  44  89  CALM    30.04S
#NELSON 3SW     N/A         55  39  55  CALM    30.24S
#NILE           N/A         56  43  62  CALM    29.33S
#TEANAWAY 4NE   N/A         55  45  69  CALM    N/A
#TROUT LAKE 1NE N/A         52  46  80  CALM    30.03R
#TROUT LAKE 1E  N/A         58  46  64  CALM    30.12S
$$

WAZ521-200910-
SIMCOE HIGHLANDS

CITY            SKY/WX      TMP DP  RH  WIND    PRES   REMARKS
#BICKLETON HS   N/A         58  43  57  N5      29.99F
#CENTERVILLE 1SWN/A         60  47  62  CALM    29.98R
#GOLDENDALE 1NE N/A         58  37  45  CALM    N/A
#GOLDENDALE 4W  N/A         56  28  34  CALM    30.11R
#GOODNOE HILLS  N/A         65  50  58  NW5     N/A
#PITT 4SE       N/A         55  48  77  CALM    30.05R
$$

WAZ026-200910-
KITTITAS VALLEY

CITY            SKY/WX      TMP DP  RH  WIND    PRES   REMARKS
ELLENSBURG AP   PTCLDY      62  44  52  N23G32  30.07S
#ELLENSBURG CWU N/A         62  44  52  NW10    29.95S
#ELLENSBURG 3NE N/A         60  45  58  N14G25  28.15S
#ELLENSBURG 1E  N/A         62  43  50  N5      30.03S
#KITTITAS 3S    N/A         57  45  64  CALM    29.99S
#MANASTASH RDG  N/A         56  56  100 N5      N/A
#ROCKY CYN DOT  N/A         63  42  46  NW14G28 N/A
#RYEGRASS DOT   N/A         56  42  59  S15     N/A
$$

WAZ027-200910-
YAKIMA VALLEY

CITY            SKY/WX      TMP DP  RH  WIND    PRES   REMARKS
SUNNYSIDE AP    N/A         49  47  93  E3      30.04R
YAKIMA AIRPORT  CLEAR       64  40  41  NW5     30.05S
YAKIMA-VAGABOND CLEAR       58  35  42  E5      30.05S
#DONALD 2NE     N/A         66   8  10  SW3     28.89R
#GRANDVIEW      N/A         59  46  62  CALM    30.02S
#MABTON         N/A         63  44  50  SW2     30.03R
#MOXEE 2E       N/A         62  N/A N/A NE3     29.98R
#NACHES 2SW     N/A         64  42  45  W12     30.08R
#OUTLOOK DOT    N/A         64  40  41  CALM    30.00S
#PARKER DOT     N/A         67  39  36  E3      30.03S
#TERRACE HTS    N/A         62  39  43  CALM    29.96F
#TOPPENISH      N/A         66  43  43  CALM    29.94R
#I82 S UMTANUM RN/A         64  37  37  W6      N/A
#UNION GAP DOT  N/A         66  40  38  E2      30.07S
#W YAKIMA       N/A         64  40  41  W1      30.00S
#WHITE SWAN 5E  N/A         55  47  74  CALM    30.01S
#WILEY CITY 3W  N/A         53  36  52  CALM    30.03S
#ZILLAH DOT     N/A         66  40  38  NW3     N/A
$$

WAZ028-200910-
LOWER COLUMBIA BASIN...WASHINGTON

CITY            SKY/WX      TMP DP  RH  WIND    PRES   REMARKS
PASCO           CLEAR       69  44  40  CALM    30.02R
PROSSER AWOS    N/A         55  46  72  W3      30.07R
RICHLAND AWOS   CLEAR       63  48  58  CALM    30.03R
#BENTON CITY    N/A         62  48  60  CALM    29.91R
#CONNELL 5N     N/A         54  44  69  CALM    29.99S
#CONNELL 5NW    N/A         56  48  74  CALM    29.94R
#ELTOPIA 6NW    N/A         62  47  58  CALM    28.99S
#KAHLOTUS       N/A         63  42  46  CALM    29.98R
#KENNEWICK 3S   N/A         65  46  50  CALM    29.99R
#PATERSON       N/A         63  55  75  E1      29.98R
#PROSSER DOT    N/A         61  45  56  W3      30.04R
#SAGEMOOR 2W    N/A         65  45  48  NW8     29.85R
#TOUCHET 2S     N/A         52  45  77  CALM    29.99R
#WEST PASCO     N/A         72  51  48  SE1     29.96S
$$

WAZ029-200910-
FOOTHILLS OF THE BLUES...WASHINGTON

CITY            SKY/WX      TMP DP  RH  WIND    PRES   REMARKS
WALLA WALLA AP  PTCLDY      67  44  43  E8      30.03R
#CLYDE 6NW      N/A         53  39  59  CALM    29.98R
#DAYTON SCHOOL  N/A         61  39  44  NE3     30.06R
#LOWDEN 2SE     N/A         54  46  74  NW2     29.99R
#PLEASANT VIEW 1N/A         64  41  43  SW7     30.01R
#PRESCOTT       N/A         53  46  77  CALM    30.00R
#WHITMAN COLLEGEN/A         64  48  56  CALM    30.03R
#WAITSBURG 5S   N/A         58  42  55  N2      30.08R
#WAITSBURG 6SSE N/A         59  41  51  E3      30.04R
#WAITSBURG 8N   N/A         50  N/A N/A CALM    29.98S
#WALLA WALLA 5E N/A         64  43  46  NE5     N/A
#WHITMAN MISSIONN/A         56  48  74  CALM    30.01R
$$

WAZ030-200910-
BLUE MOUNTAINS...WASHINGTON

CITY            SKY/WX      TMP DP  RH  WIND    PRES   REMARKS
#DIXIE 5SE      N/A         65  42  43  CALM    30.03R
$$

ORZ009-041-WAZ024-200910-
COLUMBIA RIVER GORGE

CITY            SKY/WX      TMP DP  RH  WIND    PRES   REMARKS
HOOD RIVER AP   CLEAR       57  50  77  CALM    30.08S
THE DALLES AP   CLEAR       69  54  59  NW16    30.04R
#CELILO DOT     N/A         72  51  48  SW6     N/A
#LYLE           N/A         69  55  61  W15     30.05R
#MARYHILL       N/A         69  47  45  N6      29.91R
#MURDOCK        N/A         70  53  55  NW16G24 29.99R
#RUFUS DOT      N/A         73  N/A N/A W12     N/A
#SMITHVILLE     N/A         69  52  55  N12     30.04R

$$

ORZ510-200910-
NORTH CENTRAL OREGON

CITY            SKY/WX      TMP DP  RH  WIND    PRES   REMARKS
#ANTELOPE       N/A         55  44  66  CALM    29.88R
#CHENOWITH 1W   N/A         61  50  67  W23     N/A
#COW CYN RST AREN/A         61  43  51  CALM    N/A
#DUFUR          N/A         52  45  77  CALM    30.00R
#DUFUR 9E       N/A         62  47  58  W2      30.06S
#GRASS VALLEY 1SN/A         55  45  69  S1      30.11S
#KENT DOT       N/A         54  39  57  SW7     N/A
#MAUPIN SCHOOL  N/A         64  51  63  CALM    30.11S
#SHANIKO 5WSW   N/A         59  41  51  CALM    N/A
#SHANIKO 4NW    N/A         59  44  57  NW5     30.13S
#TYGH VALLEY 2NEN/A         57  47  69  CALM    30.02R
#WAPANITIA AIRPON/A         58  49  72  W3      30.03R
#WASCO 5NE      N/A         62  49  62  W7      30.00R
$$

ORZ511-200910-
CENTRAL OREGON

CITY            SKY/WX      TMP DP  RH  WIND    PRES   REMARKS
BEND AIRPORT    CLEAR       59  39  47  NW8     30.15S
MADRAS AIRPORT  CLEAR       55  45  69  CALM    30.13S
PRINEVILLE AP   CLEAR       52  39  61  CALM    30.14S
REDMOND AIRPORT CLEAR       58  38  47  W6      30.13S SMOKE
#ASHWOOD SCHOOL N/A         57  37  47  S5      30.07S
#BEND 1SW       N/A         48  36  63  E1      N/A
#BEND-AWBREY    N/A         56  40  55  CALM    30.01S
#BEND-KIM LN    N/A         49  38  66  W3      29.98R
#CULVER         N/A         57  45  64  CALM    29.93S
#CULVER 8W      N/A         53  34  48  CALM    30.10F
#LAKE BILLY CHINN/A         58  N/A N/A CALM    30.06S
#MADRAS 4S      N/A         54  12  18  CALM    N/A
#POWELL BUTTE   N/A         60  46  60  CALM    30.08
#PRINEVILLE     N/A         54  42  64  CALM    30.09S
#PRINEVILLE 3N  N/A         53  41  64  E5      30.00R
#WARM SPRINGS   N/A         64  48  56  CALM    29.91R

$$


ORZ509-200910-
EAST SLOPES OF OREGON CASCADES

CITY            SKY/WX      TMP DP  RH  WIND    PRES   REMARKS
SISTERS AWOS    N/A         52  39  61  CALM    30.11S
#BLUE BOX PASS  N/A         49  N/A N/A CALM    N/A
#CAMP SHERMAN   N/A         47  36  65  CALM    30.07S
#LA PINE 4NW    N/A         47  37  68  CALM    30.06R
#LAVA BUTTE DOT N/A         51  34  52  NE5     N/A
#SISTERS ODOT   N/A         48  36  63  CALM    N/A
#SISTERS 3N     N/A         47  31  53  CALM    30.14S
#SUNRIVER       N/A         49  39  68  CALM    30.22S
#TUMALO 3W      N/A         60  39  46  CALM    29.89S
#WANOGA BUTTE D N/A         53  34  48  NE2     N/A

$$

ORZ044-200910-
LOWER COLUMBIA BASIN...OREGON

CITY            SKY/WX      TMP DP  RH  WIND    PRES   REMARKS
HERMISTON       CLEAR       58  46  64  CALM    30.02R
#BOARDMAN SCHOOLN/A         60  51  72  W1      30.00R
#BOARDMAN 8SW   N/A         64  53  67  SW3     30.01R
#ECHO 8SW       N/A         65  50  58  SW3     30.03R
#I-84 EX 198 DOTN/A         65  43  45  NE8     N/A
#IONE SCHOOL    N/A         63  45  52  CALM    30.02R
#UMATILLA       N/A         61  47  60  CALM    29.93R
$$

ORZ507-200910-
NORTHERN FOOTHILLS OF THE BLUES

CITY            SKY/WX      TMP DP  RH  WIND    PRES   REMARKS
PENDLETON AIRPT PTCLDY      60  40  47  SE9     30.04S
#ADAMS 3WNW     N/A         50  34  54  N1      30.00R
#CAYUSE         N/A         63  42  46  E9      29.98S
#HELIX SCHOOL   N/A         51  37  59  N2      30.01R
#HELIX 3N       N/A         58  38  47  S2      30.03S
#HOLDMAN 6E     N/A         61  41  48  CALM    29.80R
#M-F GROVE ELEM N/A         63  41  44  W1      30.01R
#M-FREEWATER 5SEN/A         62  45  54  NE5     30.03R
#PENDLETON DNTN N/A         57  34  42  NE2     30.04S
#PDT AQUATIC CTRN/A         57  37  47  CALM    30.05R
#PDT SUNRIDGE   N/A         55  40  57  CALM    30.05S
#PENDLETON 7NW  N/A         58  41  53  CALM    27.79F
#PILOT ROCK 1S  N/A         63  38  39  S7      30.06S
#PILOT ROCK     N/A         58  39  49  CALM    29.97S
#TUTUILLA       N/A         50  41  71  CALM    30.08S
#UMAPINE 2E     N/A         58  45  62  CALM    29.99R
#WESTON SCHOOL  N/A         61  37  41  CALM    29.96R

$$

ORZ508-200910-
SOUTHERN FOOTHILLS OF THE BLUES

CITY            SKY/WX      TMP DP  RH  WIND    PRES   REMARKS
LEXINGTON       CLEAR       59  41  51  E7      30.11R
#AJAX           N/A         62  42  48  S5      30.23S
#HEPPNER EOC    N/A         58  39  49  E3      29.96R
#HEPPNER 4NE    N/A         62  47  58  SW5     30.01R
#LEXINGTON 2SE  N/A         59  41  51  SE5     30.03R
#MIKKALO        N/A         62  45  54  W2      30.19R
#OLEX 4N        N/A         65  50  58  SW7     30.03R
#RUGGS 5NE      N/A         56  36  47  SE1     30.27R
#RUGGS 2SW      N/A         59  44  57  S5      30.03R

$$

ORZ502-503-200910-
BLUE MOUNTAINS

CITY            SKY/WX      TMP DP  RH  WIND    PRES   REMARKS
MEACHAM         PTCLDY      41  33  73  CALM    30.14S
#BATTLE MTN DOT N/A         51  35  54  SW7     N/A
#GRANITE        N/A         46  34  63  S1      29.85S
#HEPPNER 15SE   N/A         48  40  74  CALM    29.91S
#LADD CYN SMT   N/A         50  38  63  SW7     N/A
#LADD CREEK ODOTN/A         53  40  61  SW2     N/A
#LONG CREEK HS  N/A         51  40  66  CALM    N/A
#N POWDER DOT   N/A         54  43  66  NE3     N/A
#PIKES PEAK     N/A         65  37  35  CALM    27.99S
#SUMMERVILLE 5NWN/A         49  34  56  CALM    30.09R
#TOLLGATE       N/A         48  37  65  CALM    30.01S
#TROY SCHOOL    N/A         57  47  69  CALM    29.85R
#UKIAH          N/A         43  37  79  CALM    29.97R
#WESTON 4E      N/A         57  40  53  E1      29.97R
$$

ORZ505-200910-
JOHN DAY BASIN

CITY            SKY/WX      TMP DP  RH  WIND    PRES   REMARKS
JOHN DAY        PTCLDY      60  32  35  CALM    30.13F
#ANTELOPE 9ESE  N/A         62  43  50  CALM    N/A
#DAYVILLE SCHOOLN/A         59  37  44  CALM    30.06R
#MITCHELL       N/A         55  41  59  CALM    30.29R
#MITCHELL 8NW   N/A         62  40  44  CALM    30.04S
#MONUMENT HS    N/A         54  38  55  CALM    30.04S
#MT. VERNON 5SE N/A         56  34  43  CALM    30.09S
#SPRAY SCHOOL   N/A         57  N/A N/A CALM    N/A
$$

ORZ506-200910-
OCHOCO AND JOHN DAY HIGHLANDS

CITY            SKY/WX      TMP DP  RH  WIND    PRES   REMARKS
#HORSE RIDGE DO N/A         45  29  53  CALM    N/A
#PAULINA ODOT   N/A         54  36  50  CALM    N/A
#PINE MTN OBS   N/A         50  38  63  NW5     N/A
#PRAIRIE CITY   N/A         48  40  74  CALM    30.27R
#SENECA         N/A         53  N/A N/A CALM    N/A
#SENECA 9NW     N/A         47  34  60  CALM    29.96S
$$

ORZ049-200910-
GRANDE RONDE VALLEY

CITY            SKY/WX      TMP DP  RH  WIND    PRES   REMARKS
#COVE           N/A         52  44  74  N1      30.12R
#COVE SCHOOL    N/A         51  42  71  CALM    30.11R
#COVE 6NW       N/A         50  38  63  CALM    30.00R
#ELGIN 3N       N/A         50  37  61  CALM    30.08R
#ELGIN 1E       N/A         51  38  61  CALM    N/A
#IMBLER SCHOOL  N/A         54  40  59  CALM    30.05S
#ISLAND CITY 4N N/A         55  49  80  CALM    30.14S
#LA GRANDE-LEFFEN/A         59  38  45  W6      27.12S
#UNION 1S       N/A         50  41  71  CALM    29.98S
$$

ORZ050-200910-
WALLOWA COUNTY

CITY            SKY/WX      TMP DP  RH  WIND    PRES   REMARKS
JOSEPH AIRPORT  PTCLDY      50  39  66  S5      30.16S
#ENTERPRISE HS  N/A         47  41  79  CALM    29.89R
#IMNAHA 10S     N/A         59  40  49  SW3     30.08R
#JOSEPH         N/A         52  40  63  SW3     30.02F
#JOSEPH 3N      N/A         44  36  73  CALM    30.15S
#JOSEPH 3W      N/A         53  44  71  SW2     29.99S
#LOSTINE        N/A         50  41  71  CALM    29.81S
#LOSTINE 3SE    N/A         48  41  77  SW1     30.17S
#MT HOWARD 8000 N/A         44  37  76  SW2     30.29F
#PROMISE 1S     N/A         51  41  68  SW1     30.09S
#WALLOWA LAKE   N/A         52  41  66  SE2     30.18F
#WALLOWA SCHOOL N/A         48  42  80  CALM    30.08R



$$



USA.gov is the U.S. government's official web portal to all federal, state and local government web resources and services.